This demonstration page uses our WeatherBlox Daily Observations layout. Learn more.

Left ArrowRight Arrow

40.92501, -98.34201

Hourly Observations for August 5, 2022

Temp ( °F °C ) Dew Point ( °F °C ) Humidity (%) Winds ( mph kmh ) Pressure ( in mb ) Visibility ( mi km ) Precip ( " mm )
12:53 am 00:53 Clear 75 23.9 65 18.3 71 71 SSE 13 20 29.97 1015 10 16 0.00 0.00
1:53 am 01:53 Clear 73 22.8 66 18.9 79 79 SSE 10 17 29.98 1015 10 16 0.00 0.00
2:53 am 02:53 Clear 72 22.2 67 19.4 84 84 SSE 12 19 29.97 1015 10 16 0.00 0.00
3:53 am 03:53 Clear 72 22.2 67 19.4 84 84 SSE 13 20 29.97 1015 10 16 0.00 0.00
4:53 am 04:53 Clear 70 21.1 67 19.4 90 90 SSE 9 15 29.97 1015 10 16 0.00 0.00
5:53 am 05:53 Clear 71 21.7 67 19.4 87 87 S 12 19 29.97 1015 10 16 0.00 0.00
6:53 am 06:53 Sunny 72 22.2 68 20 87 87 S 12 19 29.97 1015 10 16 0.00 0.00
7:53 am 07:53 Sunny 73 22.8 69 20.6 87 87 S 12 19 29.97 1015 10 16 0.00 0.00
8:53 am 08:53 Sunny 77 25 71 21.7 82 82 S 9 15 29.96 1015 10 16 0.00 0.00
9:53 am 09:53 Sunny 83 28.3 72 22.2 70 70 S 12 19 29.96 1014 10 16 0.00 0.00
10:53 am 10:53 Sunny 86 30 72 22.2 63 63 SSE 15 24 29.95 1014 10 16 0.00 0.00
11:53 am 11:53 Sunny 90 32.2 72 22.2 56 56 S 13 20 29.93 1014 10 16 0.00 0.00
12:53 pm 12:53 Sunny 92 33.3 74 23.3 56 56 SSE 15 24 29.92 1013 10 16 0.00 0.00
1:53 pm 13:53 Sunny 93 33.9 74 23.3 54 54 SSE 14 22 29.91 1013 10 16 0.00 0.00
2:53 pm 14:53 Sunny 94 34.4 75 23.9 54 54 SSE 13 20 29.90 1013 10 16 0.00 0.00
3:53 pm 15:53 Sunny 94 34.4 74 23.3 52 52 SSE 15 24 29.88 1012 10 16 0.00 0.00
4:53 pm 16:53 Sunny 93 33.9 74 23.3 54 54 SSE 16 26 29.87 1012 10 16 0.00 0.00
5:53 pm 17:53 Sunny 93 33.9 74 23.3 54 54 SSE 15 24 29.86 1011 10 16 0.00 0.00
6:53 pm 18:53 Sunny 91 32.8 73 22.8 56 56 SSE 13 20 29.85 1011 10 16 0.00 0.00
7:53 pm 19:53 Sunny 88 31.1 75 23.9 66 66 SE 9 15 29.83 1010 10 16 0.00 0.00
8:53 pm 20:53 Clear 85 29.4 74 23.3 70 70 SE 10 17 29.83 1010 10 16 0.00 0.00
9:53 pm 21:53 Clear 84 28.9 73 22.8 70 70 SE 14 22 29.84 1010 10 16 0.00 0.00
10:53 pm 22:53 Clear 82 27.8 73 22.8 74 74 SSE 14 22 29.86 1011 10 16 0.00 0.00
11:53 pm 23:53 Clear 81 27.2 73 22.8 77 77 SSE 13 20 29.87 1011 10 16 0.00 0.00

Powered by AerisWeather